Regional Weather Roundup
Issued by NWS Burlington, VT

Home | Current Version | Previous Version | Text Only | Print | Product List | Glossary On
Versions: 1 2 3 4 5 6 7 8 9 10 11 12 13 14 15 16 17 18 19 20 21 22 23 24 25 26 27 28 29 30 31 32 33 34 35 36 37 38 39 40 41 42 43 44 45 46 47 48 49 50
000
ASUS41 KBTV 280830
RWRBTV
VERMONT REGIONAL WEATHER ROUNDUP
NATIONAL WEATHER SERVICE BURLINGTON VT
400 AM EDT SUN MAY 28 2017

NOTE: "FAIR" INDICATES FEW OR NO CLOUDS BELOW 12,000 FEET WITH NO
SIGNIFICANT WEATHER AND/OR OBSTRUCTIONS TO VISIBILITY.

* THESE REPORTS ARE NOT UNDER NWS QUALITY CONTROL AND/OR DO NOT
  REPORT WEATHER SUCH AS PRECIPITATION AND FOG.

VTZ001>019-280900-
_____VERMONT_____


CITY           SKY/WX    TMP DP  RH WIND       PRES   REMARKS
BURLINGTON     MOCLDY    52  50  93 CALM      29.90S
MONTPELIER     FOG       45  45 100 CALM      29.93F VSB 1/4
MORRISVILLE    FOG       43  43 100 CALM      29.91F VSB 1/4
ST. JOHNSBURY*   N/A     49  49 100 MISG      29.90R
LYNDONVILLE*   FAIR      46  45  95 CALM      29.92F FOG
MIDDLEBURY*    FAIR      48  48  99 CALM      29.89S
RUTLAND*       MOCLDY    53  51  93 SE3       29.92S
SPRINGFIELD    CLOUDY    54  52  93 CALM      29.91S
HIGHGATE*      FAIR      49  49  99 CALM      29.87S
NEWPORT*       FAIR      46  45  97 CALM      29.90F
BENNINGTON     CLOUDY    57  53  86 VRB3      29.89F
SUTTON*          N/A     46 N/A N/A MISG        N/A
ISLAND POND*     N/A     39 N/A N/A CALM        N/A
GALLUP MILLS*    N/A     41 N/A N/A MISG        N/A
UNION VILLAGE*   N/A     46 N/A N/A MISG        N/A
MT. MANSFIELD*   N/A     50 N/A N/A NW13        N/A

_____LAKE CHAMPLAIN_____


CITY           SKY/WX    TMP DP  RH WIND       PRES   REMARKS
BURTON ISLAND*   N/A     55  52  88 S7          N/A
COLCHESTER RF*   N/A     55  52  88 S8          N/A
DIAMOND ISL*     N/A     54  52  94 S5          N/A

$$

NYZ007-026>031-035-052-083-087-280900-
_____NORTHERN NEW YORK_____


CITY           SKY/WX    TMP DP  RH WIND       PRES   REMARKS
PLATTSBURGH    MOCLDY    48  47  96 CALM      29.87F
SARANAC LAKE   FOG       40  40 100 CALM      29.91R VSB 1/2
MASSENA        CLEAR     50  50 100 SW3       29.89F
OGDENSBURG*    FAIR      51  50  95 CALM      29.90R
POTSDAM*       MOCLDY    50  50 100 SW3       29.90R
STARK FALLS*     N/A     48 N/A N/A E3          N/A
WATERTOWN      CLEAR     45  45 100 CALM      29.91R
FT DRUM        CLEAR     48  46  93 S3        29.91R
ALBANY         CLOUDY    61  55  81 SE3       29.88F

$$
NHZ002-005-011-280900-
_____NEW HAMPSHIRE_____


CITY           SKY/WX    TMP DP  RH WIND       PRES   REMARKS
LEBANON        CLOUDY    53  52  96 CALM      29.91R FOG
KEENE          CLOUDY    55  54  96 CALM      29.90F
MT WASHINGTON  FOG       37  37 100 NW14        N/A  VSB 1/8 WCI  29
PLYMOUTH       CLOUDY    50  49  97 CALM      29.92F
WHITEFIELD     CLEAR     42  39  89 CALM      29.91S

$$

_____REGIONAL QUEBEC LOCATIONS_____


CITY           SKY/WX    TMP DP  RH WIND       PRES   REMARKS
MONTREAL       PTCLDY    57  52  82 SW8       29.84F
QUEBEC CITY    MOCLDY    50  45  81 NE2       29.86S
SHERBROOKE     CLEAR     43  43 100 E3        29.88S

_____REGIONAL ONTARIO LOCATIONS_____


CITY           SKY/WX    TMP DP  RH WIND       PRES   REMARKS
OTTAWA         PTCLDY    52  50  93 SW6       29.88R

______KEY______
VSB  - VISIBILITY IN MILES
WCI  - WIND CHILL INDEX
HX   - HEAT INDEX
$$
NNNN



USA.gov is the U.S. government's official web portal to all federal, state and local government web resources and services.